GW0139 Weather Reports


time (UTC)temp
C
wind
direction
speed
KPH
gust
KPH
rain 1hr
cm
rain 24hr
cm
rain mn
cm
humidity
%
barometer
mb
20260505171718 26 201 4.8 9.7 0.00 0.00 0.00 90 1008.4
20260505171215 26 240 6.4 8.0 0.00 0.00 0.00 90 1008.6
20260505170712 25 198 3.2 4.8 0.00 0.00 0.00 91 1008.3
20260505170209 25 211 4.8 4.8 0.00 0.00 0.00 91 1008.5
20260505165704 25 173 3.2 4.8 0.00 0.00 0.00 91 1008.3
20260505165200 25 253 6.4 8.0 0.00 0.00 0.00 91 1008.4
20260505164655 25 195 4.8 4.8 0.00 0.00 0.00 91 1008.4
20260505164153 25 172 4.8 4.8 0.00 0.00 0.00 91 1008.3
20260505163651 25 157 6.4 9.7 0.00 0.00 0.00 91 1008.4
20260505163149 25 247 6.4 9.7 0.00 0.00 0.00 91 1008.3
20260505162646 26 202 12.9 17.7 0.00 0.00 0.00 90 1008.4
20260505162144 26 150 4.8 8.0 0.00 0.00 0.00 90 1008.3
20260505161640 26 204 6.4 11.3 0.00 0.00 0.00 89 1008.4
20260505161138 26 158 4.8 4.8 0.00 0.00 0.00 89 1008.1
20260505160636 26 142 8.0 9.7 0.00 0.00 0.00 89 1008.3
20260505160133 25 197 4.8 8.0 0.00 0.00 0.00 91 1008.3
20260505153112 25 190 3.2 4.8 0.00 0.00 0.00 90 1008.0
20260505152609 26 186 4.8 4.8 0.00 0.00 0.00 90 1007.9
20260505152104 26 209 3.2 3.2 0.00 0.00 0.00 89 1007.9
20260505151600 26 172 4.8 4.8 0.00 0.00 0.00 90 1007.9
20260505151058 25 188 4.8 4.8 0.00 0.00 0.00 90 1008.0
20260505150553 25 110 3.2 3.2 0.00 0.00 0.00 90 1008.0
20260505140519 24 189 4.8 4.8 0.00 0.00 0.00 93 1007.9
20260505124932 23 189 4.8 4.8 0.00 0.00 0.00 94 1007.5
20260505124429 23 195 3.2 4.8 0.00 0.00 0.00 95 1007.3
20260505123925 23 198 4.8 8.0 0.00 0.00 0.00 95 1007.5
20260505123422 23 183 3.2 4.8 0.00 0.00 0.00 95 1007.4
20260505122917 23 175 1.6 3.2 0.00 0.00 0.00 94 1007.4
20260505122415 23 159 4.8 8.0 0.00 0.00 0.00 94 1007.7
20260505121912 23 187 4.8 4.8 0.00 0.00 0.00 94 1007.8
20260505121409 23 172 3.2 3.2 0.00 0.00 0.00 94 1007.8
20260505120905 23 177 1.6 3.2 0.00 0.00 0.00 94 1007.5
20260505120402 23 183 1.6 1.6 0.00 0.00 0.00 95 1007.5
20260505115900 23 162 3.2 4.8 0.00 0.00 0.00 95 1007.5
20260505115357 23 186 6.4 8.0 0.00 0.00 0.00 95 1007.4
20260505114855 23 140 4.8 8.0 0.00 0.00 0.00 95 1007.4
20260505114351 22 206 3.2 3.2 0.00 0.00 0.00 95 1007.1
20260505113848 22 176 4.8 4.8 0.00 0.00 0.00 95 1007.4
20260505113344 22 192 4.8 4.8 0.00 0.00 0.00 95 1007.5
20260505112840 22 181 3.2 4.8 0.00 0.00 0.00 95 1007.5
20260505112338 22 186 1.6 1.6 0.00 0.00 0.00 95 1007.6
20260505111833 22 206 0.0 0.0 0.00 0.00 0.00 95 1007.7
20260505111329 22 182 1.6 1.6 0.00 0.00 0.00 95 1007.7
20260505110825 22 202 1.6 1.6 0.00 0.00 0.00 95 1007.5
20260505110323 22 202 1.6 1.6 0.00 0.00 0.00 95 1007.4
20260505101757 22 158 4.8 9.7 0.00 0.00 0.00 94 1007.3
20260505101253 22 199 0.0 1.6 0.00 0.00 0.00 94 1007.5
20260505100749 22 185 1.6 3.2 0.00 0.00 0.00 94 1007.5
20260505100246 22 193 1.6 1.6 0.00 0.00 0.00 94 1007.5
20260505095741 22 193 3.2 3.2 0.00 0.00 0.00 94 1007.4
20260505095240 22 203 3.2 3.2 0.00 0.00 0.00 95 1007.6
20260505094735 22 176 1.6 3.2 0.00 0.00 0.00 94 1007.5
20260505094231 22 166 3.2 3.2 0.00 0.00 0.00 95 1007.5
20260505093728 22 253 1.6 1.6 0.00 0.00 0.00 95 1007.4
20260505093225 22 190 1.6 1.6 0.00 0.00 0.00 95 1007.6
20260505092722 22 196 1.6 1.6 0.00 0.00 0.00 95 1007.7
20260505092221 22 195 1.6 1.6 0.00 0.00 0.00 94 1007.7
20260505091718 22 196 1.6 1.6 0.00 0.00 0.00 94 1007.7
20260505091216 22 213 0.0 1.6 0.00 0.00 0.00 94 1007.6
20260505090713 22 199 1.6 1.6 0.00 0.00 0.00 94 1007.5
20260505090211 22 182 1.6 1.6 0.00 0.00 0.00 94 1007.4
20260505085708 22 208 0.0 1.6 0.00 0.00 0.00 94 1007.4
20260505085206 22 185 3.2 4.8 0.00 0.00 0.00 94 1007.4
20260505084703 22 157 4.8 9.7 0.00 0.00 0.00 94 1007.4
20260505084202 22 210 6.4 9.7 0.00 0.00 0.00 94 1007.5
20260505083659 22 162 1.6 3.2 0.00 0.00 0.00 93 1007.5
20260505083155 22 169 1.6 1.6 0.00 0.00 0.00 93 1007.6
20260505082651 22 189 4.8 8.0 0.00 0.00 0.00 93 1007.7
20260505082148 22 209 3.2 4.8 0.00 0.00 0.00 93 1007.7
20260505081644 22 189 1.6 3.2 0.00 0.00 0.00 92 1007.7
20260505081142 23 188 3.2 3.2 0.00 0.00 0.00 92 1007.9
20260505080639 22 198 1.6 1.6 0.00 0.00 0.00 92 1007.9
20260505080135 22 196 3.2 4.8 0.00 0.00 0.00 92 1007.9
20260505075631 22 187 1.6 3.2 0.00 0.00 0.00 92 1008.0
20260505075128 22 180 1.6 3.2 0.00 0.00 0.00 92 1007.8
20260505074625 22 184 1.6 1.6 0.00 0.00 0.00 92 1007.9
20260505074122 22 186 3.2 4.8 0.00 0.00 0.00 92 1008.1
20260505073620 22 210 1.6 1.6 0.00 0.00 0.00 92 1008.0
20260505073118 22 191 4.8 4.8 0.00 0.00 0.00 92 1008.0
20260505072613 22 177 1.6 1.6 0.00 0.00 0.00 92 1008.1
20260505072110 22 195 3.2 3.2 0.00 0.00 0.00 92 1008.2
20260505071605 22 179 1.6 3.2 0.00 0.00 0.00 91 1008.2
20260505071103 22 149 3.2 3.2 0.00 0.00 0.00 91 1008.2
20260505070600 22 181 8.0 11.3 0.00 0.00 0.00 91 1008.4
20260505070056 22 175 3.2 4.8 0.00 0.00 0.00 91 1008.5
20260505065552 22 121 1.6 3.2 0.00 0.00 0.00 91 1008.8
20260505065049 22 198 1.6 3.2 0.00 0.00 0.00 90 1008.7
20260505064546 22 88 3.2 3.2 0.00 0.00 0.00 90 1008.6
20260505064045 22 192 1.6 3.2 0.00 0.00 0.00 90 1008.8
20260505063542 22 186 3.2 3.2 0.00 0.00 0.00 90 1009.0
20260505063037 22 137 3.2 4.8 0.00 0.00 0.00 90 1009.2
20260505062534 22 235 3.2 3.2 0.00 0.00 0.00 90 1008.9
20260505062031 22 189 4.8 4.8 0.00 0.00 0.00 91 1009.0
20260505061529 22 197 3.2 8.0 0.00 0.00 0.00 91 1009.1
20260505061027 22 183 3.2 3.2 0.00 0.00 0.00 91 1009.1
20260505060524 22 181 1.6 3.2 0.00 0.00 0.00 91 1009.1
20260505060020 22 184 3.2 3.2 0.00 0.00 0.00 91 1009.1
20260505055516 22 185 0.0 1.6 0.00 0.00 0.00 91 1009.1
20260505055013 22 259 1.6 3.2 0.00 0.00 0.00 91 1009.2
20260505054510 22 168 1.6 1.6 0.00 0.00 0.00 91 1009.1
20260505054008 22 195 3.2 3.2 0.00 0.00 0.00 91 1009.1
20260505053505 22 193 1.6 1.6 0.00 0.00 0.00 91 1009.1
20260505053001 22 169 3.2 3.2 0.00 0.00 0.00 91 1009.2
20260505052459 22 187 3.2 3.2 0.00 0.00 0.00 91 1009.2
20260505051956 22 182 3.2 3.2 0.00 0.00 0.00 91 1009.2
20260505051452 22 192 4.8 4.8 0.00 0.00 0.00 90 1009.2
20260505050951 22 183 3.2 4.8 0.00 0.00 0.00 90 1009.0
20260505050449 22 215 3.2 3.2 0.00 0.00 0.00 90 1009.3
20260505041416 22 156 4.8 8.0 0.00 0.00 0.00 89 1009.4
20260505040913 22 167 3.2 3.2 0.00 0.00 0.00 89 1009.7
20260505040411 22 188 3.2 4.8 0.00 0.00 0.00 89 1009.7
20260505035907 22 171 1.6 1.6 0.00 0.00 0.00 89 1009.8
20260505035403 22 166 4.8 4.8 0.00 0.00 0.00 89 1009.8
20260505034901 22 172 1.6 3.2 0.00 0.00 0.00 89 1009.9
20260505034357 22 171 1.6 3.2 0.00 0.00 0.00 90 1010.0
20260505033855 22 179 3.2 3.2 0.00 0.00 0.00 90 1009.8
20260505033351 21 160 3.2 4.8 0.00 0.00 0.00 90 1009.8
20260505032849 21 167 3.2 4.8 0.00 0.00 0.00 90 1009.8
20260505032346 21 167 3.2 3.2 0.00 0.00 0.00 90 1009.8
20260505031842 21 166 1.6 3.2 0.00 0.00 0.00 89 1009.9
20260505031339 21 177 1.6 1.6 0.00 0.00 0.00 89 1009.9
20260505030837 21 182 3.2 3.2 0.00 0.00 0.00 89 1009.8
20260505030332 21 186 4.8 4.8 0.00 0.00 0.00 89 1009.8
20260505025828 21 162 3.2 4.8 0.00 0.00 0.00 89 1009.9
20260505025326 21 175 3.2 3.2 0.00 0.00 0.00 89 1009.8
20260505024824 21 164 1.6 3.2 0.00 0.00 0.00 89 1009.9
20260505024322 21 177 1.6 3.2 0.00 0.00 0.00 88 1010.0
20260505023818 21 160 4.8 9.7 0.00 0.00 0.00 88 1009.9
20260505023315 21 166 3.2 3.2 0.00 0.00 0.00 88 1009.9
20260505022813 21 170 1.6 3.2 0.00 0.00 0.00 88 1009.8
20260505022310 21 176 1.6 1.6 0.00 0.00 0.00 88 1009.7
20260505021807 21 194 1.6 1.6 0.00 0.00 0.00 87 1009.9
20260505021303 21 162 4.8 4.8 0.00 0.00 0.00 87 1009.9
20260505020759 21 181 0.0 1.6 0.00 0.00 0.00 87 1009.8
20260505020254 21 141 1.6 3.2 0.00 0.00 0.00 87 1009.6
20260505015752 21 176 0.0 1.6 0.00 0.00 0.00 87 1009.6
20260505015249 22 160 1.6 3.2 0.00 0.00 0.00 87 1009.5
20260505014746 22 166 1.6 1.6 0.00 0.00 0.00 86 1009.6
20260505014243 22 179 1.6 3.2 0.00 0.00 0.00 86 1009.5
20260505013739 22 158 3.2 3.2 0.00 0.00 0.00 86 1009.5
20260505013237 22 176 3.2 3.2 0.00 0.00 0.00 86 1009.9
20260505012735 22 167 3.2 4.8 0.00 0.00 0.00 86 1009.8
20260505012232 22 183 1.6 3.2 0.00 0.00 0.00 85 1009.7
20260505011728 22 171 1.6 1.6 0.00 0.00 0.00 85 1009.4
20260505011225 22 162 3.2 3.2 0.00 0.00 0.00 85 1009.5
20260505010721 22 192 0.0 0.0 0.00 0.00 0.00 84 1009.7
20260505010217 22 157 3.2 3.2 0.00 0.00 0.00 84 1009.6
20260505005714 22 198 1.6 3.2 0.00 0.00 0.00 83 1009.6
20260505005211 22 164 3.2 3.2 0.00 0.00 0.00 82 1009.5
20260505004708 22 187 4.8 4.8 0.00 0.00 0.00 82 1009.4
20260505004204 22 184 8.0 11.3 0.00 0.00 0.00 82 1009.3
20260505003702 22 193 6.4 8.0 0.00 0.00 0.00 82 1009.3
20260505003159 23 160 4.8 8.0 0.00 0.00 0.00 82 1009.3
20260505002655 23 159 4.8 8.0 0.00 0.00 0.00 82 1009.3
20260505002153 23 179 1.6 1.6 0.00 0.00 0.00 81 1009.5
20260505001650 23 176 4.8 4.8 0.00 0.00 0.00 81 1009.5
20260505001148 23 156 8.0 11.3 0.00 0.00 0.00 80 1009.6
20260505000644 23 147 8.0 9.7 0.00 0.00 0.00 79 1009.6
20260505000142 23 178 3.2 4.8 0.00 0.00 0.00 78 1009.7
20260504235638 23 170 4.8 8.0 0.00 0.00 0.00 78 1009.5
20260504235135 23 240 4.8 4.8 0.00 0.00 0.00 79 1009.3
20260504234632 23 153 8.0 9.7 0.00 0.00 0.00 79 1009.8
20260504234130 23 201 4.8 8.0 0.00 0.00 0.00 78 1009.8
20260504233625 23 220 1.6 1.6 0.00 0.00 0.00 77 1009.8
20260504233121 24 174 1.6 3.2 0.00 0.00 0.00 77 1009.7
20260504232619 24 192 3.2 3.2 0.00 0.00 0.00 77 1010.1
20260504232116 24 182 3.2 3.2 0.00 0.00 0.00 77 1010.0
20260504231613 24 183 3.2 4.8 0.00 0.00 0.00 77 1010.0
20260504231109 24 178 4.8 4.8 0.00 0.00 0.00 77 1010.0
20260504230605 24 170 4.8 8.0 0.00 0.00 0.00 77 1010.2
20260504230104 24 162 1.6 3.2 0.00 0.00 0.00 78 1010.0
20260504225601 24 83 3.2 4.8 0.00 0.00 0.00 78 1010.3
20260504225058 24 203 4.8 4.8 0.00 0.00 0.00 77 1010.1
20260504224554 24 137 4.8 4.8 0.00 0.00 0.00 76 1010.4
20260504224052 24 89 4.8 4.8 0.00 0.00 0.00 77 1010.3
20260504223549 24 196 4.8 4.8 0.00 0.00 0.00 77 1010.4
20260504223044 25 144 4.8 8.0 0.00 0.00 0.00 75 1010.5
20260504222541 24 141 4.8 8.0 0.00 0.00 0.00 75 1010.6
20260504222039 24 242 4.8 4.8 0.00 0.00 0.00 75 1010.7
20260504221536 25 169 1.6 3.2 0.00 0.00 0.00 76 1010.7
20260504221032 25 162 3.2 4.8 0.00 0.00 0.00 76 1010.8
20260504220529 24 183 8.0 9.7 0.00 0.00 0.00 76 1010.7
20260504220026 24 160 8.0 11.3 0.00 0.00 0.00 75 1010.7
20260504215522 24 241 3.2 4.8 0.00 0.00 0.00 76 1010.6
20260504215020 25 146 9.7 12.9 0.00 0.00 0.00 74 1010.8
20260504214516 25 99 4.8 4.8 0.00 0.00 0.00 74 1010.9
20260504214012 25 203 3.2 3.2 0.00 0.00 0.00 75 1011.1
20260504213509 25 182 4.8 4.8 0.00 0.00 0.00 75 1010.9
20260504213007 24 205 8.0 11.3 0.00 0.00 0.00 74 1011.1
20260504212502 24 190 4.8 4.8 0.00 0.00 0.00 75 1011.1
20260504212000 25 182 1.6 3.2 0.00 0.00 0.00 75 1011.1
20260504211456 25 178 4.8 9.7 0.00 0.00 0.00 74 1011.3
20260504210954 25 183 6.4 9.7 0.00 0.00 0.00 73 1011.3
20260504210450 25 189 3.2 3.2 0.00 0.00 0.00 73 1011.4
20260504205947 25 174 4.8 8.0 0.00 0.00 0.00 72 1011.4
20260504205444 25 221 6.4 8.0 0.00 0.00 0.00 73 1011.3
20260504204943 26 172 8.0 12.9 0.00 0.00 0.00 71 1011.6
20260504204441 25 148 4.8 4.8 0.00 0.00 0.00 73 1011.5
20260504203940 25 129 6.4 9.7 0.00 0.00 0.00 71 1011.7
20260504203437 25 164 4.8 8.0 0.00 0.00 0.00 72 1011.7
20260504202933 25 177 4.8 4.8 0.00 0.00 0.00 73 1011.7
20260504202430 25 159 8.0 11.3 0.00 0.00 0.00 72 1011.8
20260504201926 25 134 9.7 12.9 0.00 0.00 0.00 71 1011.8
20260504201424 25 173 6.4 8.0 0.00 0.00 0.00 72 1012.1
20260504200921 25 202 4.8 8.0 0.00 0.00 0.00 71 1011.9
20260504200418 25 184 3.2 3.2 0.00 0.00 0.00 72 1012.0
20260504195915 25 170 6.4 9.7 0.00 0.00 0.00 71 1012.0
20260504195410 25 199 4.8 4.8 0.00 0.00 0.00 71 1012.1
20260504194907 25 166 8.0 12.9 0.00 0.00 0.00 71 1012.2
20260504194403 25 214 4.8 9.7 0.00 0.00 0.00 70 1012.2
20260504193859 25 186 4.8 4.8 0.00 0.00 0.00 70 1012.5
20260504193356 25 159 4.8 8.0 0.00 0.00 0.00 70 1012.3
20260504192855 25 217 3.2 4.8 0.00 0.00 0.00 70 1012.3
20260504192352 26 215 6.4 8.0 0.00 0.00 0.00 69 1012.3
20260504191850 26 177 6.4 9.7 0.00 0.00 0.00 68 1012.3
20260504191348 26 135 1.6 3.2 0.00 0.00 0.00 68 1012.3
20260504190843 25 177 3.2 3.2 0.00 0.00 0.00 71 1012.5
20260504190339 25 186 4.8 4.8 0.00 0.00 0.00 70 1012.4
20260504185836 25 108 3.2 4.8 0.00 0.00 0.00 71 1012.5
20260504185333 26 174 3.2 4.8 0.00 0.00 0.00 69 1012.6
20260504184829 26 208 6.4 8.0 0.00 0.00 0.00 69 1012.6
20260504184325 26 145 4.8 8.0 0.00 0.00 0.00 69 1012.6
20260504183821 26 183 6.4 8.0 0.00 0.00 0.00 69 1012.6
20260504183319 25 171 6.4 8.0 0.00 0.00 0.00 70 1012.9
20260504182816 25 164 8.0 9.7 0.00 0.00 0.00 71 1012.8
20260504182314 26 178 3.2 4.8 0.00 0.00 0.00 70 1012.8
20260504181811 26 193 9.7 11.3 0.00 0.00 0.00 68 1012.9
20260504181308 25 222 4.8 4.8 0.00 0.00 0.00 68 1013.1
20260504180807 26 204 4.8 4.8 0.00 0.00 0.00 67 1013.0
20260504180305 26 207 3.2 4.8 0.00 0.00 0.00 69 1013.2
20260504175803 26 225 4.8 4.8 0.00 0.00 0.00 68 1013.2
20260504175259 25 117 3.2 3.2 0.00 0.00 0.00 67 1013.1
20260504174757 25 151 6.4 8.0 0.00 0.00 0.00 68 1013.1
20260504174255 25 175 6.4 11.3 0.00 0.00 0.00 67 1013.4
20260504173751 26 207 3.2 3.2 0.00 0.00 0.00 68 1013.6
20260504173248 26 210 4.8 8.0 0.00 0.00 0.00 65 1013.6
20260504172745 25 177 4.8 4.8 0.00 0.00 0.00 69 1013.6
20260504172241 25 187 6.4 8.0 0.00 0.00 0.00 69 1013.5